sat.trackr.live / text

‹ back to catalog

PIAST-M

NORAD 66758 · 2025-276CW

PAYLOAD ACTIVE UNKNOWN

§ Identity

Operator
Country
POL
Launch date
2025-11-28
Launch site
AFWTR
Launch vehicle
Mass (kg)
RCS (m²)

External: N2YO · Heavens-Above · Gunter

§ Orbital elements

Epoch: 2026-05-25T03:50:50.821152Z

Period
94.74 min
Inclination
97.4191°
Eccentricity
0.0002397
Mean motion
15.19997369 rev/d
Perigee alt
504.2 km
Apogee alt
507.5 km
Semi-major
6,884.0 km
B*
2.3604e-4
RAAN
219.2042°
Arg perigee
76.0714°
Mean anomaly
284.0788°
Rev number
2,693

§ Raw data

PIAST-M1 66758U 25276CW  26145.16031043  .00005016  00000+0  23604-3 0  99992 66758  97.4191 219.2042 0002397  76.0714 284.0788 15.19997369 26937

JSON: /api/v1/satellites/66758 · /tle

For live sub-satellite position, see the globe view (requires WebGL).

§ Visibility from observer

Set your observer location to see the next 7 days of passes ≥ 10°. The values pass through the URL so the page stays shareable.

No JS? Fill the form by hand. The geolocation button needs JavaScript.